カタログに戻る

COSMOS 1395

運用中ナビゲーションLEO
NORAD 13382·PAYLOAD·🇷🇺 Russia

打ち上げ Jul 21, 1982 から Plesetsk Cosmodrome

Loading…

次のパス (今後24時間)

TLE

最新Source: Space-Track

元期: Sep 14, 2026, 22:25 UTC

1 13382U 82073H   26257.93450774 -.00000003  00000-0  87860-4 0  9995
2 13382  74.0133 123.4437 0026404 127.2018 252.3318 12.42867444  3265

AllMySatでCOSMOS 1395をリアルタイム追跡

Download on the App Store